{"data":{"norad_id":63014,"intl_designator":"2025-032K","name":"STARLINK-11578 [DTC]","alt_names":[],"object_type":"PAYLOAD","status":"ACTIVE","operator":null,"country":"US","launch_date":"2025-02-15","launch_site_code":"AFETR","launch_vehicle":null,"mission":null,"orbit_class":"UNKNOWN","rcs_meters":null,"size_class":null,"mass_kg":null,"dimensions":null,"purposes":["comms"],"wikipedia_slug":null,"has_3d_model":false,"image_url":null,"decayed_at":null,"tle_current":{"epoch":"2026-09-21T19:13:48.102816Z","epoch_age_seconds":52611,"freshness":"FRESH","line1":"1 63014U 25032K   26264.80125119  .00135620  00000+0  10387-2 0  9990","line2":"2 63014  43.0004  93.5478 0001629 250.6987 109.3705 15.70944777 93006","mean_motion":15.70944777,"eccentricity":0.0001629,"inclination_deg":43.0004,"raan_deg":93.5478,"arg_perigee_deg":250.6987,"mean_anomaly_deg":109.3705,"bstar":0.0010387,"rev_number":9300,"period_min":91.664584336945,"perigee_km":355.0985831567,"apogee_km":357.29262871972,"semimajor_km":6734.3326059382,"source":"CELESTRAK","updated_at":"2026-09-22T09:00:49.740521Z"}}}